Location: Lézignan
(43.0985°N, 0.0021°W)
Time: 01:44:31
(UTC+00:00)

Daily predictions for brighter satellites

Satellite Brightness Start Highest point End
(mag) Time Altitude Azimuth Time Altitude Azimuth Time Altitude Azimuth
Cosmos 2082 Rocket 3.8 03:49:32 31° E 03:49:32 31° E 03:54:14 10° NE
COSMOS 2455 4.2 03:58:09 32° NE 03:58:34 32° NE 04:03:55 10° ESE
Cosmos 1980 Rocket 2.9 04:14:14 48° ESE 04:14:14 48° ESE 04:18:22 10° SE
Cosmos 2279 Rocket 4.2 04:14:29 66° ESE 04:14:29 66° ESE 04:20:05 10° SSE
Cosmos 2098 Rocket 4.2 04:15:58 58° E 04:15:58 58° E 04:21:22 10° SSE
Tiangong 1.4 04:27:21 12° ESE 04:27:21 12° ESE 04:27:34 10° ESE
Cosmos 2333 Rocket 4.4 04:33:56 11° N 04:37:54 21° NE 04:42:08 10° E
Cosmos 2142 Rocket 4.3 04:47:06 32° NNW 04:50:11 82° W 04:56:22 10° S
Helios 1A Rocket 4.5 04:52:04 10° SE 04:54:51 25° ENE 04:55:47 22° NE
USA 234 4.5 04:51:09 10° NE 04:56:23 26° N 04:57:47 24° NNW
SL-4 R/B 4.1 05:03:15 14° NNE 05:03:15 14° NNE 05:04:04 10° NE
Cosmos 2322 Rocket 4.1 05:02:13 10° N 05:06:51 25° NE 05:11:28 10° ESE
Meteor 2-3 Rocket 4.2 05:03:36 10° S 05:09:16 63° E 05:14:54 10° NNE
Cosmos 1726 Rocket 3.9 05:08:07 19° N 05:11:06 61° E 05:15:16 10° SSE
Cosmos 489 Rocket 4.4 05:06:53 10° SSW 05:13:12 89° WNW 05:19:31 10° NNE
Nadezhda 4 Rocket 3.9 05:07:55 10° SSW 05:14:14 78° W 05:20:33 10° N
Cosmos 1428 Rocket 4.4 05:09:08 10° S 05:15:21 90° E 05:21:40 10° N
CZ-4 R/B 3.7 05:12:20 10° NNE 05:17:00 88° ESE 05:21:36 10° SSW
NOSS 2-1 (D) 3.3 05:17:47 61° NNW 05:18:26 85° NE 05:23:20 10° SE
SL-24 R/B - RUBIN 2 4.4 05:19:22 33° SW 05:19:22 33° SW 05:22:34 10° S
Cosmos 2237 4.2 05:15:45 25° NNW 05:19:15 85° ENE 05:24:56 10° SSE
USA 59 Rocket -0.2 05:20:26 60° NW 05:21:07 82° SW 05:26:08 10° SSE
Cosmos 841 Rocket 3.3 05:16:03 10° SSW 05:21:15 72° WNW 05:26:31 10° NNE
COSMOS 2406 3.1 05:16:05 10° SSW 05:21:46 88° WNW 05:27:28 10° NNE
CZ-3 R/B 4.2 05:14:25 20° WSW 05:22:04 26° SW 05:29:22 10° S
NOSS 2-1 (E) 3.4 05:25:12 46° NNW 05:26:18 80° NE 05:31:09 10° SE
Cosmos 1933 3.5 05:27:10 47° SW 05:27:10 47° SW 05:30:19 10° S
NOSS 3-1 (C) 4.1 05:21:26 22° NW 05:26:43 85° NE 05:35:45 10° SE
Cosmos 1892 Rocket 3.5 05:23:58 10° S 05:28:19 82° E 05:32:43 10° N
Cosmos 2195 Rocket 4.5 05:22:25 10° S 05:28:40 89° W 05:35:02 10° N
ATLAS CENTAUR Rocket 4.4 05:27:41 10° SSW 05:32:01 26° SSE 05:43:12 10° ESE
Cosmos 2082 Rocket 2.6 05:31:29 32° W 05:33:15 40° WNW 05:38:31 10° NNE
SL-16 R/B 2.6 05:28:41 13° NNW 05:33:49 63° ENE 05:39:25 10° SE
IRS-1D 3.7 05:39:20 10° N 05:44:07 46° WNW 05:48:56 10° SW
COSMOS 2455 3.1 05:41:19 24° NW 05:44:42 49° WSW 05:50:26 10° S
Cosmos 1898 Rocket 3.8 05:42:41 24° NW 05:45:26 45° WSW 05:50:24 10° S
NOSS 2-1 (C) 3.6 05:44:49 33° WNW 05:46:18 56° SW 05:51:12 10° SSE
Meteor 2-20 4.4 05:40:54 10° N 05:47:03 83° W 05:53:08 10° S
Cosmos-2242 3.0 05:51:15 10° N 05:55:30 82° E 05:59:41 10° S
COSMO-SKYMED 1 2.7 05:51:44 10° S 05:55:42 47° W 05:59:10 13° NNW
Cosmos 1980 Rocket 3.5 05:56:02 18° W 05:56:14 18° W 05:59:57 10° SW
Cosmos 2278 3.7 05:51:15 10° NNW 05:56:57 83° ENE 06:02:35 10° SSE
SKYMED 2 4.3 05:55:03 10° SSW 05:58:53 31° W 06:01:14 19° NW
Tiangong -0.6 05:59:42 19° WSW 06:01:05 26° SSW 06:03:52 10° SE
Cosmos 2369 4.5 05:58:13 20° WNW 06:01:11 31° WSW 06:06:04 10° SSW
Cosmos 1627 Rocket 4.4 05:55:11 10° SSW 06:01:13 63° W 06:07:19 10° N
Cosmos 2058 Rocket 3.0 05:58:14 10° NNW 06:02:41 77° W 06:07:03 10° S
Cosmos 1484 Rocket 2.3 05:59:19 10° N 06:02:43 67° WNW 06:06:04 10° SSW
Meteor 2-2 Rocket 4.2 06:00:18 10° NNW 06:06:00 80° W 06:11:47 10° S
Okean 1 2.9 06:04:48 10° N 06:08:23 83° W 06:11:55 10° S
Meteor 2-20 Rocket 4.2 06:03:27 10° N 06:09:13 78° W 06:14:54 10° S
Cosmos 1937 Rocket 4.0 06:06:02 14° NW 06:09:57 36° WSW 06:14:36 10° SSW
ATLAS 2AS CENTAUR R/B 4.2 06:06:38 10° S 06:13:12 42° ESE 06:19:38 10° NE
ARIANE 5 R/B 3.8 06:09:57 10° NNE 06:14:57 46° E 06:19:57 10° S
Cosmos 2285 Rocket 4.4 06:08:41 10° NNW 06:15:03 67° ENE 06:21:25 10° SSE
IRIDIUM 104 4.4 06:11:24 10° S 06:16:38 89° E 06:21:52 10° N
Cosmos 2333 Rocket 2.2 06:17:02 10° NNW 06:22:48 73° WSW 06:28:29 10° SSE
SAR-Lupe-4 4.4 06:21:37 10° NNE 06:25:08 54° ESE 06:28:36 10° S
IRIDIUM 114 4.3 06:20:33 10° S 06:25:45 76° W 06:31:00 10° N
SMAP 3.2 06:21:29 10° NNE 06:26:10 84° E 06:30:49 10° SSW
Helios 1A Rocket 4.0 06:25:07 10° SW 06:27:25 18° W 06:29:19 12° WNW
Cosmos 2360 Rocket 2.2 06:23:39 10° NNW 06:29:19 87° ENE 06:34:56 10° SSE
Cosmos 2026 Rocket 4.5 06:25:23 10° SW 06:30:52 35° WNW 06:36:24 10° N
Landsat 7 4.0 06:27:27 10° NNE 06:32:08 77° ESE 06:36:46 10° S
Cosmos 1814 Rocket 4.0 06:27:16 10° SSW 06:32:27 69° WNW 06:37:44 10° NNE
NOSS 3-1 (A) 4.2 06:25:55 10° NW 06:33:19 81° SW 06:42:25 10° SSE
CBERS-1 4.1 06:29:52 10° N 06:34:49 54° WNW 06:39:46 10° SSW
IRIDIUM 103 4.4 06:29:47 10° SSW 06:34:57 62° W 06:40:08 10° N
IGS 5A 3.9 06:31:54 10° N 06:35:36 37° WNW 06:39:17 10° SW
BREEZE-M DEB (TANK) 2.3 06:34:38 12° NW 06:36:12 43° NNE 06:38:51 10° E
USA 234 4.3 06:32:27 10° E 06:38:12 34° NNE 06:43:57 10° NW
Cosmos 1758 Rocket 3.6 06:34:29 10° SSW 06:38:52 64° W 06:43:15 10° N
Cosmos 1733 2.3 06:38:12 10° SW 06:39:50 27° WNW 06:41:29 10° NNW
Cosmos 1743 2.2 06:36:47 10° S 06:40:01 78° W 06:43:16 10° N
SL-4 R/B 2.7 06:37:11 10° NW 06:40:04 29° NNE 06:42:54 10° E
IRS-1C 4.3 06:38:49 10° NNE 06:44:10 80° ESE 06:49:29 10° SSW
BREEZE-M DEB (TANK) 3.9 06:42:51 10° WNW 06:45:34 38° N 06:52:13 10° ENE
Meteor 2-6 Rocket 4.4 06:40:23 10° NNW 06:46:18 67° W 06:52:10 10° S
Thor Agena Rocket 3.5 06:42:22 10° N 06:47:21 60° WNW 06:52:17 10° SSW
Cosmos 2219 Rocket 2.5 06:42:29 10° NNW 06:48:10 74° ENE 06:53:46 10° SSE
Cosmos 2322 Rocket 2.4 06:45:41 10° NNW 06:51:15 56° WSW 06:56:45 10° S
S3M 4.2 06:45:57 10° N 06:52:10 77° E 06:58:16 10° SSE
